Datos meteoreol�gicos.
Lugar de muestreo: Estaci�n de Fotobiolog�a Playa Uni�n (EFPU) en Playa Uni�n, Chubut, Argentina (-43.311263, -65.040969).
Datos aportados al Sistema Nacional de Datos del Mar.
Fecha,Temperatura_Max,Humedad_Max,Vel.Viento_Km/h_Max,Temperatura_Min,Humedad_Min,Vel.Viento_Km/h_Min,Temperatura_Prom,Humedad_Prom,Vel.Viento_Km/h_Prom,Direcci�n_Viento
2014-01-01,24.2,64.0,56.2,13.1,21.0,1.1,17.9,41.8,27.4,W
2014-01-02,18.9,69.0,47.2,8.4,28.0,1.8,12.7,49.9,21.8,W
2014-01-03,21.3,69.0,40.0,7.5,20.0,0.7,14.6,48.2,20.7,WNW
2014-01-04,24.1,70.0,51.8,13.9,29.0,3.6,18.2,51.7,19.5,WNW
2014-01-05,27.1,72.0,40.0,12.1,19.0,2.5,18.7,53.1,16.8,WNW
2014-01-06,32.8,72.0,49.0,15.8,11.0,1.4,24.3,39.9,19.5,WNW
2014-01-07,27.4,68.0,46.4,16.0,17.0,0.7,20.3,39.3,17.4,WSW
2014-01-08,32.2,57.0,41.8,15.1,11.0,0.0,23.9,24.9,15.9,WNW
2014-01-09,24.7,70.0,35.3,14.7,28.0,0.0,19.1,48.5,11.9,ESE
2014-01-10,22.5,64.0,41.8,12.2,25.0,3.6,16.2,47.6,17.6,WNW
2014-01-11,29.6,74.0,29.5,10.8,26.0,1.4,18.1,57.6,13.1,E
2014-01-12,40.3,72.0,82.1,15.7,8.0,0.0,28.5,31.6,24.9,NNE
2014-01-13,37.6,61.0,61.2,22.6,16.0,0.0,27.9,33.1,17.1,N
2014-01-14,36.5,56.0,54.0,20.6,10.0,0.4,28.5,29.5,17.4,W
2014-01-15,28.5,66.0,43.9,17.1,21.0,0.7,21.9,43.3,18.7,E
2014-01-16,34.4,74.0,31.0,15.7,21.0,0.0,22.8,54.8,13.1,E
2014-01-17,35.7,72.0,38.9,17.5,21.0,0.0,23.9,51.0,13.4,E
2014-01-18,31.2,70.0,51.1,15.5,23.0,1.8,20.7,53.1,21.3,SSE
2014-01-19,35.1,83.0,42.8,13.5,19.0,1.1,24.2,47.9,15.6,N
2014-01-20,33.5,65.0,43.6,20.9,16.0,0.7,27.2,30.3,17.6,WSW
2014-01-21,25.5,35.0,13.7,22.4,29.0,4.0,23.8,31.7,8.6,WNW
2014-02-01,28.1,69.0,42.5,18.8,16.0,2.9,22.7,41.0,19.2,E
2014-02-02,25.3,70.0,56.2,16.2,15.0,0.7,19.7,38.5,22.0,W
2014-02-03,25.5,64.0,46.1,12.0,19.0,1.4,19.6,35.1,16.8,WNW
2014-02-04,29.4,57.0,45.7,11.9,16.0,2.9,22.3,27.2,13.2,WNW
2014-02-05,22.9,64.0,71.6,14.0,13.0,4.0,19.5,28.7,29.1,W
2014-02-06,26.8,35.0,50.0,14.8,17.0,4.7,21.7,24.7,23.9,WNW
2014-02-07,26.6,72.0,62.6,16.8,21.0,6.5,20.7,41.1,27.4,WNW
2014-02-08,28.4,68.0,49.3,14.4,17.0,0.0,20.0,47.4,16.1,WNW
2014-02-09,30.4,67.0,36.0,13.1,17.0,1.4,21.0,44.4,15.9,WNW
2014-02-10,32.0,78.0,26.6,18.0,25.0,0.0,21.8,51.0,11.1,ESE
2014-02-11,31.7,77.0,43.9,16.4,28.0,0.0,20.5,57.8,17.5,SSE
2014-02-12,24.2,78.0,50.4,12.3,30.0,0.0,17.3,58.5,18.7,S
2014-02-13,29.6,75.0,32.4,9.0,28.0,0.0,17.4,58.5,13.8,E
2014-02-14,25.9,83.0,50.4,11.0,23.0,1.1,19.6,50.5,21.2,NNE
2014-02-15,28.0,76.0,58.7,16.4,25.0,7.9,21.7,53.4,29.8,NNE
2014-02-16,30.7,73.0,64.4,18.1,31.0,11.2,23.8,52.6,31.4,NNE
2014-02-17,29.8,81.0,53.3,17.9,42.0,6.5,24.1,56.0,26.3,NNE
2014-02-18,36.0,72.0,34.6,18.3,22.0,0.0,23.7,52.9,10.5,E
2014-02-19,22.5,83.0,41.0,16.6,58.0,2.5,19.0,69.9,24.7,S
2014-02-20,23.6,80.0,44.3,11.7,34.0,1.4,17.5,65.9,17.3,NNE
2014-02-21,29.3,85.0,29.9,12.5,28.0,0.0,19.6,63.4,10.8,N
2014-02-22,30.5,74.0,33.5,12.8,22.0,0.0,21.6,51.0,9.6,WNW
2014-02-23,28.3,76.0,52.6,15.0,28.0,2.9,20.4,50.9,23.7,S
2014-02-24,17.6,80.0,54.4,12.4,47.0,7.2,14.7,63.6,26.2,SSW
2014-02-25,21.4,75.0,43.9,8.8,38.0,2.9,16.1,55.5,17.0,NNE
2014-02-26,31.8,74.0,64.4,13.1,19.0,1.1,21.9,43.6,22.9,NNE
2014-02-27,22.6,50.0,43.9,17.7,28.0,4.7,19.5,35.7,19.8,N
2014-03-01,24.0,83.0,34.6,10.0,50.0,0.0,17.4,68.8,15.6,E
2014-03-02,28.6,87.0,41.0,12.4,28.0,2.5,20.2,58.0,15.3,N
2014-03-03,32.9,87.0,65.2,15.8,24.0,1.8,23.8,53.0,21.5,NNE
2014-03-04,37.3,69.0,43.9,19.7,15.0,0.7,25.1,39.0,19.8,N
2014-03-05,24.4,66.0,43.9,14.0,22.0,0.0,19.1,40.1,19.2,WSW
2014-03-06,26.6,65.0,34.9,12.5,24.0,2.2,19.0,46.2,14.0,WNW
2014-03-07,21.7,72.0,38.2,13.8,32.0,5.4,17.3,50.1,19.8,WSW
2014-03-08,29.8,82.0,45.4,13.1,17.0,0.7,19.7,53.4,19.8,N
2014-03-09,20.5,67.0,46.4,11.1,18.0,4.3,15.8,35.1,20.5,WSW
2014-03-10,24.9,52.0,41.8,7.8,17.0,1.8,17.6,33.5,13.5,NNW
2014-03-11,27.2,68.0,53.6,15.0,18.0,1.8,21.0,40.0,20.6,WNW
2014-03-12,22.3,64.0,29.2,13.7,29.0,3.6,16.2,42.0,14.5,WSW
2014-03-16,17.4,87.0,61.9,12.0,55.0,0.0,14.1,71.4,22.1,SW
2014-03-17,16.8,85.0,51.1,10.4,50.0,0.0,13.8,69.0,24.0,SSW
2014-03-18,20.9,82.0,33.8,8.3,47.0,0.0,14.4,71.3,13.0,E
2014-03-19,26.1,64.0,39.6,14.2,21.0,2.5,20.9,39.2,17.7,N
2014-03-20,21.0,67.0,77.0,9.5,32.0,3.6,16.5,47.0,25.7,WNW
2014-03-21,16.4,62.0,43.2,7.6,30.0,1.8,11.8,47.3,18.4,WSW
2014-03-22,28.9,60.0,41.8,8.8,16.0,0.4,19.4,36.4,15.9,WNW
2014-03-23,24.5,63.0,41.0,13.0,17.0,6.1,18.6,42.6,21.3,WNW
2014-03-24,21.6,68.0,44.6,9.7,32.0,0.7,15.6,54.1,14.6,N
2014-03-25,27.7,84.0,46.8,9.9,16.0,1.1,18.0,58.3,14.8,N
2014-03-26,30.9,65.0,55.8,13.2,18.0,3.2,22.0,40.5,22.5,N
2014-03-27,22.7,57.0,40.0,19.0,47.0,6.1,20.7,51.8,15.3,NNW
2014-03-30,16.7,71.0,56.9,8.2,22.0,0.0,13.2,41.7,28.3,WNW
2014-03-31,16.2,55.0,29.5,6.4,37.0,0.4,10.3,46.3,10.6,W
2014-04-01,19.4,67.0,28.8,1.7,22.0,0.0,11.0,46.8,10.7,WNW
2014-04-02,18.5,85.0,32.0,10.0,44.0,0.0,14.3,68.4,9.0,NNE
2014-04-03,19.1,90.0,24.1,14.1,78.0,1.4,15.9,87.2,9.4,ENE
2014-04-04,17.5,93.0,24.1,14.1,83.0,0.0,15.3,88.7,10.6,ESE
2014-04-05,18.2,89.0,26.6,13.9,71.0,7.6,15.3,82.4,14.8,ESE
2014-04-06,16.7,90.0,23.8,13.9,83.0,0.0,15.0,86.5,9.3,ENE
2014-04-07,16.2,94.0,46.4,14.8,89.0,2.9,15.5,91.5,18.0,E
2014-04-08,15.3,95.0,57.2,13.8,92.0,0.0,14.8,94.7,11.8,SE
2014-04-09,19.6,95.0,26.3,12.7,49.0,0.0,14.7,80.9,0.0,W
2014-04-10,13.6,71.0,52.2,8.2,54.0,11.2,10.4,64.2,24.7,W
2014-04-11,20.6,79.0,46.4,6.1,39.0,2.9,12.9,63.9,15.8,NNW
2014-04-12,11.6,88.0,108.4,6.1,57.0,0.0,9.0,75.4,15.0,SSW
2014-04-13,17.3,85.0,23.4,2.2,36.0,0.0,9.9,63.8,4.0,NNW
2014-04-14,21.5,78.0,29.9,8.9,44.0,0.0,14.6,64.3,11.5,WNW
2014-04-15,23.0,78.0,44.3,11.0,26.0,0.7,16.6,55.2,13.0,N
2014-04-16,17.3,70.0,47.5,10.2,24.0,1.8,13.6,45.4,18.0,W
2014-04-17,15.5,61.0,42.8,7.2,29.0,4.3,11.7,43.2,18.6,WSW
2014-04-18,15.0,67.0,54.4,5.9,20.0,2.9,10.9,41.4,18.9,SW
2014-04-19,15.1,66.0,25.2,2.7,30.0,0.7,8.7,47.8,11.8,WNW
2014-04-20,17.6,74.0,21.6,1.7,32.0,0.7,9.9,57.8,9.5,WNW
2014-04-21,19.6,77.0,25.2,3.6,38.0,0.0,10.3,66.9,10.4,WNW
2014-04-22,19.7,78.0,27.7,6.5,40.0,0.0,12.5,67.2,9.5,WNW
2014-04-23,18.6,90.0,27.4,6.2,65.0,0.0,11.9,81.6,9.8,NE
2014-04-24,19.5,90.0,42.1,9.9,55.0,0.0,14.4,77.4,16.8,NNE
2014-04-25,16.6,85.0,46.8,13.1,69.0,1.4,14.7,77.0,24.2,NNE
2014-04-29,19.9,85.0,31.3,3.8,26.0,2.9,13.6,50.5,12.5,NNW
2014-04-30,21.5,69.0,30.2,6.9,32.0,2.5,14.5,51.3,12.8,NNW
2014-05-01,16.8,52.0,43.6,7.5,24.0,0.0,12.1,38.4,14.3,WSW
2014-05-02,16.5,77.0,24.1,3.7,37.0,0.0,10.2,54.9,9.3,N
2014-05-03,20.4,71.0,43.6,7.7,33.0,4.3,14.8,51.0,16.6,N
2014-05-04,21.3,47.0,70.6,11.2,18.0,0.0,17.0,33.9,24.9,WNW
2014-05-05,18.9,62.0,37.8,7.9,30.0,0.7,12.4,47.5,11.6,NNW
2014-05-06,17.5,71.0,24.5,6.9,38.0,0.0,11.7,57.3,7.7,N
2014-05-07,15.8,92.0,31.3,8.0,70.0,0.0,12.3,81.2,12.1,S
2014-05-08,17.3,90.0,48.2,7.1,63.0,0.4,12.2,77.9,20.2,N
2014-05-09,19.7,86.0,38.9,10.7,53.0,0.7,14.5,71.7,16.6,N
2014-05-10,17.4,87.0,24.1,7.2,31.0,0.0,12.9,59.9,9.9,WNW
2014-05-11,16.2,70.0,45.0,3.5,32.0,1.8,10.1,53.2,15.8,WNW
2014-05-12,17.8,64.0,43.9,9.3,33.0,2.9,12.5,53.9,15.8,NNW
2014-05-13,12.7,71.0,16.6,2.7,41.0,0.0,7.2,57.2,7.9,WNW
2014-05-14,14.6,67.0,36.4,3.1,31.0,0.0,8.3,53.3,11.5,WNW
2014-05-15,14.9,82.0,20.5,0.5,38.0,0.0,7.6,61.6,8.1,WNW
2014-05-16,11.3,87.0,43.9,7.7,56.0,2.9,10.0,74.8,19.5,WSW
2014-05-17,13.2,84.0,54.0,7.6,56.0,8.6,10.0,67.9,28.8,SSW
2014-05-18,12.8,85.0,31.0,5.9,60.0,0.0,9.4,75.3,12.6,SSE
2014-05-19,12.7,88.0,19.4,6.1,73.0,0.0,8.5,81.2,7.6,E
2014-05-20,11.2,86.0,28.8,8.7,74.0,5.0,9.8,81.5,15.4,E
2014-05-21,14.4,89.0,52.9,7.9,75.0,0.0,9.7,84.8,12.6,SSW
2014-05-22,10.2,89.0,60.5,3.2,59.0,0.0,6.6,74.6,17.9,SW
2014-05-23,13.3,85.0,25.2,1.5,49.0,2.2,6.7,67.4,12.2,WNW
2014-05-24,17.2,81.0,19.8,2.7,41.0,1.4,9.5,65.4,10.2,NNW
2014-05-25,17.2,73.0,52.2,6.4,31.0,0.0,12.0,54.9,16.5,WNW
2014-05-26,15.9,71.0,33.8,5.2,44.0,1.1,11.3,56.2,14.4,WNW
2014-05-27,17.4,82.0,31.0,6.5,45.0,0.4,11.9,61.7,13.0,WNW
2014-05-28,18.9,86.0,50.4,8.5,53.0,2.5,12.8,73.3,18.0,N
2014-05-29,18.8,82.0,31.0,10.6,35.0,0.4,13.5,64.5,13.1,N
2014-05-30,17.8,76.0,34.2,6.4,37.0,0.4,11.3,58.0,12.2,NNW
2014-05-31,18.4,72.0,33.5,6.7,41.0,0.0,12.4,57.8,11.5,N
2014-06-01,15.8,68.0,43.2,10.0,46.0,0.0,12.6,54.9,14.3,NNW
2014-06-02,16.0,81.0,27.4,7.7,38.0,0.0,11.2,65.3,6.3,N
2014-06-03,15.5,89.0,23.0,7.4,52.0,0.0,11.5,81.5,7.0,SSW
2014-06-04,7.9,87.0,40.0,5.0,72.0,2.2,6.4,78.4,15.9,W
2014-06-05,8.8,85.0,49.7,2.4,47.0,1.1,5.7,65.7,21.7,WNW
2014-06-06,12.7,70.0,35.6,3.2,39.0,0.0,7.6,55.5,14.4,WNW
2014-06-07,13.8,77.0,34.2,3.2,46.0,0.0,7.5,62.6,11.5,WNW
2014-06-08,11.4,86.0,31.0,-0.5,62.0,1.4,4.6,76.9,10.1,NNW
2014-06-09,16.5,82.0,41.8,3.6,41.0,1.8,9.6,62.2,15.8,WNW
2014-06-10,14.5,61.0,32.8,10.3,42.0,0.0,12.4,49.6,12.4,N
2014-06-11,16.2,78.0,26.3,8.2,36.0,1.4,12.3,57.6,10.8,NNW
2014-06-12,10.0,67.0,31.7,3.0,44.0,0.0,6.5,58.4,11.0,WNW
2014-06-13,9.9,71.0,25.9,-0.6,46.0,1.1,4.4,58.8,11.8,WNW
2014-06-14,14.4,70.0,29.5,2.0,45.0,0.0,7.9,57.9,10.7,N
2014-06-15,15.6,83.0,45.4,5.7,39.0,0.0,10.7,60.2,15.5,WNW
2014-06-16,13.1,63.0,37.4,5.2,37.0,0.0,8.5,52.0,17.8,W
2014-06-17,12.5,77.0,34.2,2.2,24.0,5.4,6.5,54.0,13.9,WSW
2014-06-18,12.1,74.0,25.2,-1.1,37.0,1.1,5.1,58.7,10.2,WNW
2014-06-19,15.5,73.0,31.3,1.9,38.0,0.0,8.5,53.9,12.9,WNW
2014-06-20,17.5,86.0,29.2,5.4,40.0,0.0,10.1,64.0,9.1,NW
2014-06-21,11.8,85.0,21.2,3.1,64.0,0.0,8.4,76.9,9.2,SSE
2014-06-22,10.9,88.0,18.7,6.3,74.0,0.0,8.7,81.1,7.2,WNW
2014-06-23,14.3,88.0,36.0,4.4,38.0,2.5,8.9,64.2,12.8,WNW
2014-06-24,14.0,65.0,54.7,4.5,32.0,0.0,9.5,46.8,17.5,WNW
2014-06-25,12.8,62.0,25.9,3.4,40.0,1.8,7.8,51.0,13.2,WNW
2014-06-26,15.5,69.0,48.2,1.6,32.0,1.8,7.8,53.0,14.5,WNW
2014-06-27,17.3,66.0,31.0,5.0,36.0,2.2,10.2,53.0,14.5,WNW
2014-06-28,21.5,72.0,33.8,5.5,26.0,0.0,12.3,49.0,12.7,N
2014-06-29,16.8,72.0,23.4,6.5,34.0,0.0,10.9,49.7,8.8,WNW
2014-06-30,15.3,74.0,18.4,4.1,41.0,0.4,8.4,62.7,7.5,NNW
2014-07-01,17.1,73.0,22.3,4.3,40.0,0.0,10.8,56.1,11.2,NNW
2014-07-02,10.9,74.0,21.2,6.8,52.0,0.4,8.9,64.4,8.8,W
2014-07-03,12.2,67.0,24.1,1.2,32.0,0.0,6.8,50.6,10.5,NNW
2014-07-04,13.2,84.0,26.3,0.8,32.0,0.0,7.0,59.5,10.0,NNW
2014-07-05,12.1,84.0,31.7,3.8,59.0,0.0,8.6,72.3,11.7,WNW
2014-07-06,15.3,71.0,51.5,1.7,34.0,0.0,8.5,52.8,16.5,WNW
2014-07-07,12.5,73.0,62.3,1.3,29.0,2.2,6.6,46.1,20.1,WNW
2014-07-08,9.8,68.0,25.2,-0.6,40.0,0.0,4.1,53.5,10.8,WNW
2014-07-09,11.3,72.0,17.6,-2.1,33.0,0.7,4.9,54.0,8.7,WNW
2014-07-10,11.2,86.0,51.8,1.5,67.0,2.9,6.4,79.2,20.0,N
2014-07-11,12.9,88.0,37.1,5.2,57.0,3.2,8.7,75.6,15.6,N
2014-07-12,12.9,85.0,25.2,1.5,52.0,2.5,7.4,69.8,10.4,WNW
2014-07-13,15.5,89.0,41.8,2.0,58.0,0.0,8.9,76.6,15.5,N
2014-07-14,14.1,90.0,47.2,10.3,76.0,0.0,11.9,84.9,15.8,N
2014-07-15,16.2,88.0,41.0,6.2,33.0,0.0,10.8,61.6,15.1,WNW
2014-07-16,12.2,72.0,15.5,3.5,56.0,0.0,7.3,65.7,6.7,WNW
2014-07-17,11.6,78.0,24.5,7.3,44.0,4.7,9.8,56.2,12.0,WNW
2014-07-18,19.3,71.0,34.6,7.2,39.0,0.7,12.9,56.3,12.8,W
2014-07-19,19.2,72.0,18.4,9.4,42.0,0.0,13.9,57.9,9.3,WNW
2014-07-20,17.8,73.0,25.2,8.5,44.0,2.9,12.1,62.5,11.1,WNW
2014-07-21,13.3,81.0,23.0,8.3,38.0,0.0,10.7,64.8,8.1,S
2014-07-22,12.2,50.0,34.6,8.8,32.0,4.0,11.1,37.9,19.4,WSW
2014-07-23,12.0,44.0,52.2,9.4,33.0,8.6,10.8,38.0,23.8,WSW
2014-07-24,9.8,46.0,34.6,7.8,43.0,12.6,8.7,44.9,20.4,WNW
2014-07-26,15.2,53.0,28.1,-2.8,28.0,1.1,2.3,37.4,10.6,WNW
2014-07-27,11.1,87.0,60.1,-5.2,41.0,0.0,2.3,62.5,20.3,NNE
2014-07-28,13.1,88.0,65.9,5.2,60.0,4.0,8.9,77.8,20.8,N
2014-07-29,12.1,90.0,19.4,2.1,68.0,0.0,7.0,80.7,6.7,WNW
2014-07-30,14.7,86.0,35.6,2.5,48.0,2.2,9.0,70.6,13.4,N
2014-07-31,19.2,77.0,37.1,6.9,36.0,1.4,13.0,60.1,12.6,NNW
2014-08-01,18.0,83.0,42.5,9.0,45.0,4.0,13.0,65.0,16.1,NNW
2014-08-02,23.3,68.0,48.6,9.6,36.0,0.0,14.6,53.3,19.8,WNW
2014-08-03,14.8,63.0,60.5,6.9,29.0,0.0,10.9,43.1,26.8,WNW
2014-08-04,14.9,63.0,37.1,4.2,30.0,2.2,9.8,48.0,17.8,WNW
2014-08-05,14.5,56.0,41.4,10.0,38.0,4.7,11.9,44.5,17.6,N
2014-08-06,16.0,61.0,52.6,6.6,33.0,3.2,11.0,47.1,20.5,WNW
2014-08-07,17.2,55.0,50.0,5.8,31.0,1.8,11.3,43.5,20.0,W
2014-08-08,8.6,68.0,16.2,3.7,54.0,0.4,5.9,63.1,8.8,NNW
2014-08-10,14.3,42.0,0.0,8.0,27.0,0.0,12.1,32.3,0.0,
2014-08-11,15.5,70.0,52.9,5.9,27.0,0.0,10.2,43.7,6.0,WNW
2014-08-12,13.7,57.0,60.1,2.4,25.0,2.5,7.9,40.9,24.6,W
2014-08-13,15.8,53.0,39.6,4.1,23.0,0.0,9.0,39.3,17.5,NW
2014-08-14,17.6,62.0,30.6,2.0,22.0,0.7,9.0,45.2,9.4,N
2014-08-15,21.8,63.0,25.2,5.7,12.0,0.0,12.6,37.8,9.5,NNW
2014-08-16,20.4,52.0,31.3,12.5,25.0,0.0,15.9,39.3,12.2,N
2014-08-17,26.5,64.0,53.3,11.4,26.0,0.0,20.0,42.5,17.4,N
2014-08-18,25.2,73.0,44.6,8.1,30.0,0.0,14.2,53.8,18.2,S
2014-08-19,11.0,79.0,40.3,7.6,51.0,4.7,8.9,63.2,17.1,NE
2014-08-20,18.9,86.0,33.1,6.8,47.0,0.0,11.7,69.1,8.7,NNW
2014-08-21,13.9,89.0,20.5,9.2,62.0,0.0,11.1,74.7,6.8,ESE
2014-08-22,10.0,90.0,32.4,8.3,83.0,4.0,8.9,87.2,15.6,E
2014-08-23,9.2,91.0,42.1,8.3,83.0,4.3,8.8,88.3,21.4,E
2014-08-24,8.3,86.0,51.8,6.9,74.0,12.2,7.5,79.1,32.6,S
2014-08-25,8.1,85.0,43.9,5.6,65.0,6.5,6.8,73.9,23.4,SSW
2014-08-26,16.3,88.0,21.2,0.8,53.0,0.0,5.9,76.0,9.5,WNW
2014-08-27,12.3,89.0,38.5,3.5,69.0,4.0,8.2,80.3,16.3,ENE
2014-08-28,19.1,85.0,41.8,6.0,34.0,2.2,11.9,61.1,15.0,NNE
2014-08-29,18.0,84.0,32.0,4.3,49.0,0.0,11.0,70.0,7.2,NNE
2014-08-30,15.0,84.0,51.1,7.5,68.0,0.0,11.5,76.5,5.6,N
2014-08-31,21.9,89.0,20.5,8.0,38.0,0.0,11.8,66.3,9.3,E
2014-09-01,12.1,95.0,27.7,7.0,78.0,1.4,9.4,88.4,11.8,E
2014-09-02,17.2,91.0,43.6,9.7,65.0,2.2,12.5,81.8,18.7,NNE
2014-09-03,12.8,92.0,43.6,10.8,88.0,2.5,11.8,90.9,19.5,NNE
2014-09-04,18.8,93.0,31.0,8.2,61.0,0.0,12.2,82.5,9.3,N
2014-09-05,12.8,93.0,46.8,8.6,76.0,9.4,10.1,87.3,25.5,SSW
2014-09-06,12.6,92.0,47.5,6.9,62.0,0.0,9.2,82.1,24.4,SW
2014-09-07,18.5,89.0,42.5,4.4,36.0,0.0,11.3,63.0,15.5,NW
2014-09-08,16.4,79.0,54.4,4.8,38.0,0.4,10.8,62.2,17.3,NNW
2014-09-09,16.4,51.0,76.0,7.7,24.0,10.1,11.7,38.6,34.3,WNW
2014-09-10,16.2,66.0,54.7,5.3,31.0,1.4,10.1,51.1,23.6,WNW
2014-09-11,17.4,72.0,36.0,5.4,25.0,0.0,11.4,50.9,16.3,NW
2014-09-12,18.4,74.0,40.7,6.6,30.0,2.9,10.8,55.0,13.3,NNW
2014-09-13,20.8,83.0,37.1,5.2,21.0,0.0,12.8,51.6,13.2,NNW
2014-09-14,21.7,68.0,45.7,9.2,16.0,0.0,16.0,33.1,14.9,WNW
2014-09-15,21.1,55.0,44.3,8.4,18.0,0.4,15.2,36.5,15.9,WNW
2014-09-16,22.4,64.0,38.5,6.8,18.0,0.0,13.3,45.8,13.5,NW
2014-09-17,24.0,68.0,33.5,6.1,13.0,0.0,15.1,42.1,11.7,N
2014-09-18,23.9,67.0,51.8,13.0,26.0,0.0,17.1,40.3,13.3,NNW
2014-09-19,13.4,79.0,40.7,8.2,58.0,0.0,10.8,70.6,19.5,SE
2014-09-20,12.4,77.0,44.6,7.7,49.0,3.6,9.4,63.5,21.2,ENE
2014-09-21,17.2,81.0,60.5,8.6,57.0,0.0,12.2,73.4,26.4,N
2014-09-22,19.4,78.0,40.7,9.5,18.0,0.0,14.1,38.6,9.2,WNW
2014-09-23,19.6,71.0,54.7,5.2,28.0,0.0,12.1,48.9,8.8,NW
2014-09-24,10.6,55.0,40.0,7.2,39.0,0.0,8.7,48.9,19.9,WNW
2014-11-18,26.0,89.0,38.0,13.1,9.0,0.1,20.5,35.2,13.4,SSE
2014-11-19,19.1,76.0,29.2,9.7,27.0,0.9,14.8,47.6,13.5,SSE
2014-11-20,25.0,92.0,27.1,10.3,18.0,0.8,17.1,52.6,12.9,SSE
2014-11-21,30.4,72.0,49.8,13.0,10.0,1.5,22.2,38.0,16.8,
2014-11-22,24.6,94.0,25.3,14.8,21.0,0.1,19.3,50.1,10.9,
2014-11-23,25.3,93.0,43.2,13.6,22.0,0.1,19.5,48.7,11.3,
2014-11-24,17.3,92.0,27.0,15.3,44.0,3.6,16.0,72.4,15.9,
2014-11-25,23.4,71.0,28.9,12.9,19.0,2.1,17.4,49.5,12.6,
2014-11-26,19.2,86.0,31.9,12.3,27.0,0.1,15.8,55.5,14.6,E
2014-11-27,25.5,99.0,47.7,9.9,0.0,0.5,18.1,50.4,18.5,NE
2014-11-28,28.9,73.0,45.1,14.8,12.0,0.1,21.8,37.3,16.5,W
2014-11-29,19.2,87.0,44.2,8.2,32.0,1.4,13.9,55.1,21.2,WSW
2014-11-30,24.7,93.0,32.7,6.9,18.0,0.4,16.4,48.0,14.8,WNW
2014-12-01,29.7,62.0,35.0,15.5,10.0,2.1,21.9,32.1,15.7,WNW
2014-12-02,29.5,67.0,36.8,16.0,12.0,0.1,22.0,33.3,12.6,WNW
2014-12-03,26.4,83.0,27.3,15.5,13.0,0.3,19.7,48.8,11.4,SE
2014-12-04,28.8,99.0,48.4,11.3,0.0,0.1,20.8,51.0,16.9,NE
2014-12-05,24.0,100.0,29.9,15.4,0.0,0.1,19.8,52.1,9.9,
2014-12-06,32.7,76.0,42.0,17.6,8.0,0.1,25.6,25.6,16.1,
2014-12-07,32.9,44.0,47.9,19.2,7.0,4.1,26.3,23.7,21.9,NNE
2014-12-08,24.1,86.0,36.3,16.0,18.0,5.2,19.1,44.6,17.8,NE
2014-12-09,25.1,76.0,55.4,14.4,14.0,0.4,18.1,44.6,16.4,NE
2014-12-10,19.3,92.0,33.4,8.2,0.0,0.6,15.5,59.2,14.9,S
2014-12-11,21.9,97.0,27.1,12.6,30.0,0.1,17.4,65.0,11.8,WSW
2014-12-12,20.1,86.0,30.3,13.7,29.0,4.1,16.9,58.3,17.0,ESE
2014-12-13,18.5,90.0,42.9,11.6,46.0,0.1,15.3,73.2,15.8,SW
2014-12-14,26.4,97.0,41.8,10.4,20.0,0.1,17.8,66.8,14.8,SW
2014-12-15,32.9,76.0,33.7,18.1,13.0,3.6,24.1,50.2,16.0,SW
2014-12-16,24.7,91.0,33.5,16.4,25.0,4.5,20.3,52.7,15.9,ESE
2014-12-17,22.0,84.0,38.0,15.2,29.0,0.9,18.4,61.0,14.8,SW
2014-12-18,29.1,58.0,56.4,15.5,15.0,4.7,23.5,30.7,25.5,ESE
2014-12-19,24.4,89.0,48.6,11.9,16.0,1.6,18.2,41.2,21.5,E
2014-12-20,20.0,70.0,35.3,8.7,17.0,3.1,14.0,39.3,16.4,ESE
2014-12-21,15.7,84.0,31.0,8.1,49.0,0.1,12.4,69.9,14.1,E
2014-12-22,25.8,99.0,43.0,6.7,0.0,1.4,15.5,51.9,17.3,SSW
